Tracking 25534 objects as of 29-Jan-2022
HD Live streaming from Space Station
objects crossing your sky now

THOR ABLESTAR DEB

Track THOR ABLESTAR DEB now!
10-day predictions


NORAD ID: 469
Int'l Code: 1961-015FF
Perigee: 752.2 km
Apogee: 851.8 km
Inclination: 66.8 °
Period: 100.8 minutes
Semi major axis: 7173 km
RCS: 0.056 m2 (small)
Launch date: June 29, 1961
Source: United States (US)
Launch site: AIR FORCE EASTERN TEST RANGE (AFETR)

Note: This is SATELLITE DEBRIS
aabbcc
Your satellite tracking list
Your tracking list is empty




NASA's NSSDC Master Catalog

Two Line Element Set (TLE):
1   469U 61015FF  22029.17278945  .00000331  00000-0  15970-3 0  9992
2   469  66.8359  10.4265 0069426 316.6246  42.9401 14.29058089124396
Source of the keplerian elements: AFSPC